KC4KQE Weather Reports


Display with metric or nautical units.
time (UTC)temp
F
wind
direction
speed
MPH
gust
MPH
rain 1hr
in
rain 24hr
in
rain mn
in
humidity
%
barometer
mb
20260901234414 95 208 0.0 8.0 0.00 0.00 0.00 37 1013.0
20260901233914 95 236 4.0 7.0 0.00 0.00 0.00 37 1013.0
20260901233415 94 201 0.0 4.0 0.00 0.00 0.00 37 1013.0
20260901232914 95 240 0.0 6.0 0.00 0.00 0.00 37 1013.1
20260901232414 95 155 4.0 7.0 0.00 0.00 0.00 38 1013.1
20260901231914 95 142 0.0 5.0 0.00 0.00 0.00 36 1013.2
20260901231416 95 167 2.0 7.0 0.00 0.00 0.00 35 1013.2
20260901230914 95 120 3.0 9.0 0.00 0.00 0.00 36 1013.2
20260901230414 95 130 3.0 6.0 0.00 0.00 0.00 36 1013.2
20260901225914 95 235 2.0 7.0 0.00 0.00 0.00 37 1013.3
20260901225414 95 252 1.0 4.0 0.00 0.00 0.00 36 1013.3
20260901224914 95 195 2.0 9.0 0.00 0.00 0.00 37 1013.4
20260901224414 95 313 1.0 5.0 0.00 0.00 0.00 37 1013.4
20260901223915 96 202 3.0 8.0 0.00 0.00 0.00 37 1013.5
20260901223415 96 229 6.0 8.0 0.00 0.00 0.00 38 1013.5
20260901222916 95 219 2.0 8.0 0.00 0.00 0.00 37 1013.5
20260901222415 95 159 2.0 4.0 0.00 0.00 0.00 38 1013.6
20260901221915 95 190 2.0 5.0 0.00 0.00 0.00 38 1013.7
20260901221414 95 265 4.0 7.0 0.00 0.00 0.00 37 1013.7
20260901220914 95 131 0.0 5.0 0.00 0.00 0.00 36 1013.7
20260901220414 95 187 0.0 5.0 0.00 0.00 0.00 37 1013.8
20260901215914 94 57 0.0 4.0 0.00 0.00 0.00 39 1013.9
20260901215415 95 232 1.0 9.0 0.00 0.00 0.00 36 1014.0
20260901214914 95 221 3.0 7.0 0.00 0.00 0.00 37 1014.1
20260901214415 95 223 6.0 8.0 0.00 0.00 0.00 36 1014.1
20260901213914 94 262 4.0 6.0 0.00 0.00 0.00 38 1014.1
20260901213414 94 234 0.0 6.0 0.00 0.00 0.00 38 1014.2
20260901212914 94 229 2.0 6.0 0.00 0.00 0.00 38 1014.4
20260901212414 95 209 6.0 7.0 0.00 0.00 0.00 40 1014.4
20260901211914 93 187 6.0 6.0 0.00 0.00 0.00 39 1014.4
20260901211414 93 113 0.0 5.0 0.00 0.00 0.00 40 1014.6
20260901210914 94 214 1.0 5.0 0.00 0.00 0.00 39 1014.7
20260901210414 94 216 1.0 6.0 0.00 0.00 0.00 39 1014.7
20260901205914 93 215 4.0 6.0 0.00 0.00 0.00 41 1014.8
20260901205414 93 0 1.0 8.0 0.00 0.00 0.00 41 1014.9
20260901204915 93 248 1.0 9.0 0.00 0.00 0.00 40 1015.0
20260901204414 93 170 5.0 8.0 0.00 0.00 0.00 41 1015.0
20260901203914 93 237 6.0 6.0 0.00 0.00 0.00 41 1015.1
20260901203414 92 76 2.0 5.0 0.00 0.00 0.00 44 1015.2
20260901202914 92 146 1.0 3.0 0.00 0.00 0.00 43 1015.3
20260901202414 93 62 0.0 8.0 0.00 0.00 0.00 40 1015.3
20260901201914 92 355 3.0 4.0 0.00 0.00 0.00 44 1015.3
20260901201414 92 232 0.0 5.0 0.00 0.00 0.00 43 1015.4
20260901200914 92 135 0.0 4.0 0.00 0.00 0.00 44 1015.4
20260901200414 91 321 3.0 3.0 0.00 0.00 0.00 46 1015.4
20260901195915 91 251 3.0 5.0 0.00 0.00 0.00 44 1015.5
20260901195414 91 227 1.0 8.0 0.00 0.00 0.00 44 1015.6
20260901194914 92 216 4.0 9.0 0.00 0.00 0.00 45 1015.7
20260901194414 91 288 3.0 8.0 0.00 0.00 0.00 46 1015.7
20260901193914 90 226 4.0 5.0 0.00 0.00 0.00 46 1015.7
20260901193414 90 114 0.0 5.0 0.00 0.00 0.00 45 1015.8
20260901192914 90 241 0.0 7.0 0.00 0.00 0.00 45 1015.9
20260901192414 90 263 0.0 5.0 0.00 0.00 0.00 45 1015.9
20260901191914 90 238 1.0 6.0 0.00 0.00 0.00 46 1016.1
20260901191414 90 175 5.0 7.0 0.00 0.00 0.00 47 1016.1
20260901190914 89 272 0.0 6.0 0.00 0.00 0.00 47 1016.1
20260901190414 90 254 7.0 9.0 0.00 0.00 0.00 47 1016.2
20260901185914 90 199 4.0 8.0 0.00 0.00 0.00 48 1016.2
20260901185414 89 268 5.0 6.0 0.00 0.00 0.00 49 1016.3
20260901184914 89 186 1.0 7.0 0.00 0.00 0.00 47 1016.3
20260901184415 89 242 4.0 7.0 0.00 0.00 0.00 48 1016.3
20260901183914 89 248 3.0 9.0 0.00 0.00 0.00 47 1016.5
20260901183415 89 232 6.0 9.0 0.00 0.00 0.00 48 1016.5
20260901182914 89 216 1.0 7.0 0.00 0.00 0.00 49 1016.5
20260901182414 88 194 4.0 5.0 0.00 0.00 0.00 49 1016.5
20260901181914 89 188 3.0 8.0 0.00 0.00 0.00 48 1016.6
20260901181416 88 150 1.0 5.0 0.00 0.00 0.00 48 1016.6
20260901180914 88 234 2.0 5.0 0.00 0.00 0.00 49 1016.7
20260901180416 88 233 5.0 7.0 0.00 0.00 0.00 49 1016.7
20260901175914 88 242 1.0 5.0 0.00 0.00 0.00 50 1016.7
20260901175416 88 174 4.0 9.0 0.00 0.00 0.00 50 1016.7
20260901174915 88 261 4.0 7.0 0.00 0.00 0.00 50 1016.7
20260901174414 87 168 1.0 7.0 0.00 0.00 0.00 51 1016.8
20260901173914 87 255 6.0 9.0 0.00 0.00 0.00 50 1016.7
20260901173414 87 207 2.0 9.0 0.00 0.00 0.00 52 1016.8
20260901172914 87 231 5.0 9.0 0.00 0.00 0.00 51 1016.8
20260901172414 87 186 4.0 9.0 0.00 0.00 0.00 51 1016.9
20260901171914 86 192 6.0 8.0 0.00 0.00 0.00 53 1016.9
20260901171414 86 227 7.0 9.0 0.00 0.00 0.00 53 1016.8
20260901170914 86 225 4.0 8.0 0.00 0.00 0.00 54 1016.8
20260901170414 85 245 0.0 6.0 0.00 0.01 0.00 52 1016.8
20260901165914 86 189 5.0 7.0 0.00 0.01 0.00 53 1016.7
20260901165415 86 189 4.0 6.0 0.00 0.02 0.00 53 1016.7
20260901164915 86 162 4.0 9.0 0.00 0.02 0.00 54 1016.6
20260901164414 85 162 4.0 7.0 0.00 0.03 0.00 54 1016.6
20260901163914 85 188 3.0 7.0 0.00 0.04 0.00 53 1016.6
20260901163414 85 190 4.0 8.0 0.00 0.04 0.00 54 1016.6
20260901162914 85 200 5.0 8.0 0.00 0.05 0.00 53 1016.6
20260901162414 85 237 4.0 8.0 0.00 0.06 0.00 54 1016.5
20260901161914 85 213 5.0 8.0 0.00 0.07 0.00 54 1016.4
20260901161415 84 198 3.0 4.0 0.00 0.08 0.00 54 1016.4
20260901160915 84 186 4.0 5.0 0.00 0.09 0.00 52 1016.4
20260901160414 84 106 2.0 5.0 0.00 0.09 0.00 52 1016.3
20260901155914 84 182 0.0 4.0 0.00 0.10 0.00 52 1016.4
20260901155415 84 184 2.0 3.0 0.00 0.12 0.00 54 1016.3
20260901154914 83 62 1.0 3.0 0.00 0.13 0.00 54 1016.3
20260901154414 84 26 2.0 3.0 0.00 0.17 0.00 52 1016.3
20260901153914 83 261 3.0 3.0 0.00 0.19 0.00 52 1016.3
20260901153414 83 336 1.0 2.0 0.00 0.22 0.00 55 1016.3
20260901152914 83 323 0.0 3.0 0.00 0.23 0.00 55 1016.3
20260901152415 82 315 2.0 4.0 0.00 0.23 0.00 56 1016.3
20260901151914 82 316 1.0 3.0 0.00 0.23 0.00 58 1016.3
20260901151414 82 57 2.0 3.0 0.00 0.23 0.00 59 1016.3
20260901150914 81 15 0.0 4.0 0.00 0.23 0.00 61 1016.3
20260901150414 81 337 1.0 4.0 0.00 0.23 0.00 62 1016.3
20260901145914 81 315 2.0 4.0 0.00 0.23 0.00 63 1016.3
20260901145416 80 50 2.0 4.0 0.00 0.23 0.00 64 1016.2
20260901144914 80 351 1.0 4.0 0.00 0.23 0.00 65 1016.2
20260901144414 79 13 3.0 4.0 0.00 0.23 0.00 67 1016.1
20260901143914 78 5 2.0 4.0 0.00 0.23 0.00 67 1016.1
20260901143414 78 13 2.0 4.0 0.00 0.23 0.00 69 1016.0
20260901142915 77 351 3.0 4.0 0.00 0.23 0.00 69 1016.0
20260901142414 77 5 2.0 4.0 0.00 0.23 0.00 70 1016.0
20260901141915 77 9 0.0 5.0 0.00 0.23 0.00 71 1016.0
20260901141414 77 334 3.0 5.0 0.00 0.23 0.00 70 1016.1
20260901140914 76 32 2.0 4.0 0.00 0.23 0.00 71 1016.0
20260901140415 75 5 2.0 3.0 0.00 0.23 0.00 74 1016.0
20260901135914 75 5 2.0 3.0 0.00 0.23 0.00 74 1016.0
20260901135414 75 71 0.0 1.0 0.00 0.24 0.00 75 1016.1
20260901134915 74 37 0.0 2.0 0.00 0.24 0.00 76 1016.0
20260901134414 74 28 0.0 3.0 0.00 0.24 0.00 77 1016.0
20260901133914 73 44 2.0 4.0 0.00 0.24 0.00 77 1015.9
20260901133414 73 69 3.0 4.0 0.00 0.25 0.00 77 1015.8
20260901132914 73 40 0.0 3.0 0.00 0.25 0.00 77 1015.8
20260901132414 73 38 0.0 4.0 0.00 0.25 0.00 76 1015.7
20260901131914 73 16 1.0 3.0 0.00 0.25 0.00 76 1015.7
20260901131414 74 46 2.0 5.0 0.00 0.25 0.00 76 1015.7
20260901130915 74 0 2.0 5.0 0.00 0.25 0.00 75 1015.7
20260901130414 74 350 3.0 5.0 0.00 0.25 0.00 75 1015.6
20260901125914 74 355 3.0 6.0 0.00 0.25 0.00 75 1015.6
20260901125414 74 355 4.0 5.0 0.00 0.25 0.00 75 1015.5
20260901124915 74 22 2.0 5.0 0.00 0.26 0.00 76 1015.4
20260901124414 74 16 1.0 5.0 0.00 0.26 0.00 76 1015.4
20260901123914 74 22 0.0 5.0 0.00 0.26 0.00 76 1015.3
20260901123414 74 32 1.0 5.0 0.00 0.26 0.00 76 1015.3
20260901122914 74 343 4.0 5.0 0.00 0.26 0.00 76 1015.4
20260901122414 74 5 6.0 6.0 0.00 0.26 0.00 76 1015.4
20260901121914 74 22 2.0 6.0 0.00 0.26 0.00 76 1015.3
20260901121414 74 0 3.0 6.0 0.00 0.26 0.00 75 1015.3
20260901120914 74 355 3.0 5.0 0.00 0.26 0.00 75 1015.3
20260901120415 74 5 3.0 5.0 0.00 0.26 0.00 75 1015.3
20260901115914 74 5 2.0 4.0 0.00 0.26 0.00 74 1015.2
20260901115415 74 0 2.0 4.0 0.00 0.26 0.00 74 1015.2
20260901114914 74 31 1.0 5.0 0.00 0.26 0.00 73 1015.1
20260901114414 74 5 4.0 5.0 0.00 0.26 0.00 73 1015.1
20260901113914 74 5 4.0 4.0 0.00 0.26 0.00 73 1015.1
20260901113414 74 17 2.0 4.0 0.00 0.26 0.00 74 1015.0
20260901112914 74 355 0.0 3.0 0.00 0.26 0.00 74 1015.0
20260901112414 74 14 0.0 4.0 0.00 0.26 0.00 74 1015.0
20260901111915 74 32 1.0 4.0 0.00 0.26 0.00 75 1015.0
20260901111414 74 34 1.0 5.0 0.00 0.26 0.00 75 1015.1
20260901110914 74 5 1.0 5.0 0.00 0.26 0.00 75 1015.1
20260901110414 74 340 3.0 4.0 0.00 0.26 0.00 75 1015.1
20260901105914 74 28 2.0 4.0 0.00 0.26 0.00 74 1015.1
20260901105414 74 9 2.0 5.0 0.00 0.26 0.00 75 1015.1
20260901104914 74 13 1.0 2.0 0.00 0.26 0.00 76 1015.1
20260901104414 74 0 1.0 2.0 0.00 0.26 0.00 77 1015.1
20260901103914 74 38 0.0 0.0 0.00 0.26 0.00 77 1015.1
20260901103415 74 38 0.0 0.0 0.00 0.26 0.00 76 1015.1
20260901102914 74 38 0.0 0.0 0.00 0.26 0.00 74 1015.2
20260901102414 75 38 0.0 1.0 0.00 0.26 0.00 73 1015.2
20260901101914 75 38 0.0 3.0 0.00 0.26 0.00 72 1015.2
20260901101414 75 31 1.0 2.0 0.00 0.26 0.00 70 1015.2
20260901100914 76 25 1.0 4.0 0.00 0.26 0.00 69 1015.2
20260901100414 76 34 1.0 4.0 0.00 0.26 0.00 69 1015.2
20260901095914 76 34 3.0 5.0 0.00 0.26 0.00 69 1015.3
20260901095414 76 355 4.0 6.0 0.00 0.27 0.00 69 1015.3
20260901094915 75 17 3.0 5.0 0.00 0.27 0.00 70 1015.4
20260901094414 75 355 0.0 5.0 0.00 0.28 0.00 71 1015.4
20260901093914 75 36 1.0 5.0 0.00 0.28 0.00 71 1015.3
20260901093415 75 22 3.0 4.0 0.00 0.28 0.00 72 1015.4
20260901092914 75 355 3.0 5.0 0.00 0.29 0.00 72 1015.3
20260901092415 75 26 2.0 4.0 0.00 0.29 0.00 72 1015.3
20260901091914 75 355 3.0 5.0 0.00 0.29 0.00 72 1015.2
20260901091415 75 19 1.0 4.0 0.00 0.29 0.00 72 1015.2
20260901090914 75 48 2.0 4.0 0.00 0.29 0.00 72 1015.2
20260901090414 75 35 2.0 5.0 0.00 0.29 0.00 73 1015.2
20260901085914 75 34 0.0 3.0 0.00 0.29 0.00 73 1015.2
20260901085415 76 65 2.0 5.0 0.00 0.29 0.00 73 1015.2
20260901084914 76 14 3.0 6.0 0.00 0.29 0.00 73 1015.2
20260901084414 75 348 3.0 6.0 0.00 0.30 0.00 73 1015.2
20260901083914 75 11 4.0 6.0 0.00 0.30 0.00 74 1015.2
20260901083414 75 333 2.0 6.0 0.00 0.30 0.00 74 1015.2
20260901082915 75 355 2.0 6.0 0.00 0.34 0.00 75 1015.2
20260901082414 75 338 3.0 4.0 0.00 0.47 0.00 76 1015.3
20260901081914 75 5 2.0 3.0 0.00 0.58 0.00 77 1015.2
20260901081414 74 42 1.0 3.0 0.00 0.69 0.00 78 1015.3
20260901080915 74 24 1.0 3.0 0.00 0.69 0.00 80 1015.3
20260901080414 74 42 2.0 2.0 0.00 0.69 0.00 80 1015.4
20260901075915 74 18 0.0 2.0 0.00 0.69 0.00 80 1015.4
20260901075414 74 18 0.0 0.0 0.00 0.69 0.00 80 1015.3
20260901074914 74 18 0.0 0.0 0.00 0.69 0.00 81 1015.4
20260901074414 74 18 0.0 0.0 0.00 0.69 0.00 81 1015.4
20260901073914 74 18 0.0 0.0 0.00 0.69 0.00 81 1015.4
20260901073414 74 35 0.0 0.0 0.00 0.69 0.00 81 1015.3
20260901072914 74 35 0.0 0.0 0.00 0.69 0.00 81 1015.3
20260901072414 74 35 0.0 0.0 0.00 0.69 0.00 80 1015.3
20260901071914 75 35 0.0 0.0 0.00 0.69 0.00 79 1015.3
20260901071415 75 35 0.0 0.0 0.00 0.69 0.00 77 1015.3
20260901070915 75 35 0.0 0.0 0.00 0.69 0.00 77 1015.3
20260901070414 75 35 0.0 0.0 0.00 0.69 0.00 77 1015.3
20260901065914 75 350 0.0 0.0 0.00 0.69 0.00 77 1015.3
20260901065415 75 350 0.0 2.0 0.00 0.69 0.00 75 1015.2
20260901064914 75 350 0.0 2.0 0.00 0.69 0.00 76 1015.1
20260901064414 75 350 0.0 0.0 0.00 0.69 0.00 75 1015.1
20260901063915 76 350 0.0 0.0 0.00 0.69 0.00 71 1015.1
20260901063414 76 350 0.0 1.0 0.00 0.69 0.00 71 1015.1
20260901062914 76 350 0.0 1.0 0.00 0.69 0.00 71 1015.0
20260901062414 76 350 0.0 2.0 0.00 0.69 0.00 70 1015.0
20260901061914 77 28 0.0 1.0 0.00 0.69 0.00 70 1015.0
20260901061414 77 28 0.0 1.0 0.00 0.69 0.00 69 1015.1
20260901060914 77 28 0.0 1.0 0.00 0.69 0.00 69 1015.2
20260901060414 77 12 0.0 3.0 0.00 0.69 0.00 69 1015.2
20260901055914 77 18 0.0 2.0 0.00 0.69 0.00 70 1015.2
20260901055414 77 52 0.0 2.0 0.00 0.69 0.00 71 1015.2
20260901054914 77 51 2.0 2.0 0.00 0.69 0.00 71 1015.2
20260901054414 76 52 0.0 2.0 0.00 0.69 0.00 71 1015.2
20260901053914 77 93 1.0 1.0 0.00 0.69 0.00 71 1015.2
20260901053414 77 179 0.0 0.0 0.00 0.69 0.00 70 1015.2
20260901052914 78 179 0.0 0.0 0.00 0.69 0.00 68 1015.2
20260901052414 78 179 0.0 2.0 0.00 0.69 0.00 67 1015.2
20260901051914 78 136 0.0 2.0 0.00 0.69 0.00 64 1015.2
20260901051414 79 106 0.0 2.0 0.00 0.69 0.00 64 1015.1
20260901050914 79 92 2.0 3.0 0.00 0.69 0.00 63 1015.2
20260901050415 79 102 2.0 7.0 0.00 0.69 0.00 63 1015.2
20260901045914 79 109 1.0 2.0 0.00 0.69 0.00 64 1015.3
20260901045414 79 109 0.0 4.0 0.00 0.69 0.00 63 1015.3
20260901044914 79 113 3.0 6.0 0.00 0.69 0.00 62 1015.3
20260901044414 79 132 3.0 7.0 0.00 0.69 0.00 62 1015.2
20260901043914 80 138 4.0 7.0 0.00 0.69 0.00 61 1015.0
20260901043414 80 121 1.0 7.0 0.00 0.69 0.00 60 1015.1
20260901042914 80 126 4.0 9.0 0.00 0.69 0.00 60 1015.1
20260901042414 80 107 2.0 5.0 0.00 0.69 0.00 59 1015.1
20260901041914 80 144 2.0 5.0 0.00 0.69 0.00 60 1015.1
20260901041414 80 120 2.0 5.0 0.00 0.69 0.00 60 1015.2
20260901040914 80 132 2.0 6.0 0.00 0.69 0.00 60 1015.1
20260901040414 80 127 2.0 7.0 0.00 0.69 0.00 59 1015.2
20260901035914 80 121 1.0 4.0 0.00 0.69 0.00 61 1015.1
20260901035415 80 88 2.0 6.0 0.00 0.69 0.00 61 1015.0
20260901034914 80 76 2.0 5.0 0.00 0.69 0.00 62 1014.9
20260901034414 80 113 3.0 7.0 0.00 0.69 0.00 62 1014.8
20260901033914 80 130 4.0 5.0 0.00 0.69 0.00 63 1014.8
20260901033415 80 111 0.0 4.0 0.00 0.69 0.00 63 1014.7
20260901032914 80 143 1.0 3.0 0.00 0.69 0.00 64 1014.8
20260901032414 80 164 0.0 3.0 0.00 0.69 0.00 65 1014.7
20260901031914 80 138 0.0 4.0 0.00 0.69 0.00 65 1014.5
20260901031414 80 157 1.0 5.0 0.00 0.69 0.00 65 1014.5
20260901030914 80 149 1.0 3.0 0.00 0.69 0.00 65 1014.3
20260901030415 80 145 2.0 3.0 0.00 0.69 0.00 65 1014.2
20260901025914 80 111 1.0 2.0 0.00 0.69 0.00 65 1014.2
20260901025414 80 11 0.0 2.0 0.00 0.69 0.00 64 1014.1
20260901024914 80 355 0.0 3.0 0.00 0.69 0.00 63 1014.0
20260901024414 80 11 2.0 4.0 0.00 0.69 0.00 62 1014.0
20260901023914 80 355 1.0 4.0 0.00 0.69 0.00 61 1014.0
20260901023414 81 17 3.0 4.0 0.00 0.69 0.00 62 1014.0
20260901022914 81 0 1.0 4.0 0.00 0.69 0.00 62 1013.9
20260901022414 81 346 2.0 3.0 0.00 0.69 0.00 61 1013.7
20260901021914 81 342 1.0 3.0 0.00 0.69 0.00 61 1013.6
20260901021414 81 0 2.0 4.0 0.00 0.69 0.00 58 1013.5
20260901020914 82 355 2.0 4.0 0.00 0.69 0.00 57 1013.4
20260901020414 82 355 3.0 5.0 0.00 0.69 0.00 57 1013.4
20260901015914 82 321 3.0 5.0 0.00 0.69 0.00 55 1013.5
20260901015415 82 5 1.0 4.0 0.00 0.69 0.00 54 1013.4
20260901014914 82 327 2.0 3.0 0.00 0.69 0.00 54 1013.4
20260901014413 83 16 0.0 1.0 0.00 0.69 0.00 55 1013.2
20260901013915 83 16 1.0 4.0 0.00 0.69 0.00 54 1013.2
20260901013414 83 20 1.0 3.0 0.00 0.69 0.00 54 1013.3
20260901012914 84 348 1.0 4.0 0.00 0.69 0.00 52 1013.5
20260901012414 84 307 3.0 5.0 0.00 0.69 0.00 51 1013.3
20260901011914 84 355 0.0 3.0 0.00 0.69 0.00 50 1013.3
20260901011415 85 348 0.0 3.0 0.00 0.69 0.00 52 1013.2
20260901010914 85 5 1.0 4.0 0.00 0.69 0.00 52 1013.3
20260901010414 85 24 1.0 2.0 0.00 0.69 0.00 51 1013.2
20260901005914 85 309 1.0 5.0 0.00 0.69 0.00 50 1013.3
20260901005414 85 342 4.0 8.0 0.00 0.69 0.00 50 1013.4
20260901004914 85 15 6.0 7.0 0.00 0.69 0.00 50 1013.5
20260901004414 85 27 3.0 9.0 0.00 0.69 0.00 49 1013.6
20260901003914 86 0 3.0 9.0 0.00 0.69 0.00 50 1013.6
20260901003414 86 0 8.0 8.0 0.00 0.69 0.00 50 1013.6
20260901002914 86 5 7.0 11.0 0.00 0.69 0.00 50 1013.7
20260901002414 86 329 6.0 11.0 0.00 0.69 0.00 49 1013.7
20260901001914 86 12 10.0 10.0 0.00 0.69 0.00 50 1013.9
20260901001415 86 342 5.0 9.0 0.00 0.69 0.00 49 1013.8
20260901000914 86 5 6.0 11.0 0.00 0.69 0.00 49 1013.7
20260901000414 86 15 4.0 10.0 0.00 0.69 0.00 49 1013.8
20260831235915 86 301 6.0 11.0 0.00 0.69 0.00 50 1013.7
20260831235414 87 305 6.0 11.0 0.00 0.69 0.00 49 1013.8
20260831234914 87 0 7.0 14.0 0.00 0.69 0.00 50 1013.7